N1DNE Weather Reports


Display with metric or nautical units.
time (UTC)temp
F
wind
direction
speed
MPH
gust
MPH
rain 1hr
in
rain 24hr
in
rain mn
in
humidity
%
barometer
mb
20260508045250 42 82 0.0 0.0 0.00 0.05 0.00 84 1007.6
20260508044251 42 82 0.0 0.0 0.00 0.05 0.00 84 1007.6
20260508043251 42 82 0.0 0.0 0.00 0.05 0.00 84 1007.7
20260508042734 42 82 0.0 0.0 0.00 0.05 0.00 83 1007.7
20260508041253 42 82 0.0 0.0 0.00 0.05 0.00 82 1007.6
20260508040246 43 82 0.0 0.0 0.00 0.05 0.00 82 1007.8
20260508035243 43 82 0.0 1.0 0.00 0.05 0.05 81 1007.8
20260508034243 44 82 0.0 1.0 0.00 0.05 0.05 81 1007.8
20260508034206 44 82 0.0 1.0 0.00 0.05 0.05 80 1007.8
20260508032243 44 82 0.0 1.0 0.00 0.05 0.05 80 1007.9
20260508031242 44 82 0.0 1.0 0.00 0.05 0.05 79 1007.8
20260508030244 45 82 0.0 1.0 0.00 0.05 0.05 78 1007.9
20260508025242 45 82 0.0 1.0 0.00 0.06 0.05 78 1007.9
20260508024244 46 82 0.0 2.0 0.00 0.06 0.05 76 1007.9
20260508023238 46 82 0.0 2.0 0.00 0.06 0.05 74 1007.9
20260508022237 47 82 0.0 2.0 0.00 0.06 0.05 73 1007.9
20260508021237 47 82 0.0 2.0 0.00 0.07 0.05 73 1007.9
20260508020237 48 82 0.0 1.0 0.00 0.07 0.05 72 1007.8
20260508015236 48 82 0.0 1.0 0.00 0.10 0.05 71 1007.7
20260508014236 49 82 1.0 2.0 0.00 0.10 0.05 68 1007.6
20260508013236 49 82 0.0 1.0 0.00 0.10 0.05 68 1007.6
20260508012237 50 82 0.0 2.0 0.00 0.10 0.05 66 1007.4
20260508011717 50 82 0.0 1.0 0.00 0.10 0.05 65 1007.3
20260508010232 51 82 0.0 1.0 0.00 0.10 0.05 65 1007.4
20260508005230 52 82 1.0 2.0 0.00 0.10 0.05 60 1007.1
20260508004706 52 82 0.0 1.0 0.00 0.10 0.05 57 1007.0
20260508003629 54 82 0.0 0.0 0.00 0.10 0.05 56 1006.6
20260508003305 53 82 0.0 1.0 0.00 0.10 0.05 55 1006.8
20260508001230 54 82 0.0 1.0 0.00 0.10 0.05 55 1006.6
20260508000714 55 82 0.0 1.0 0.00 0.10 0.05 55 1006.5
20260507235230 55 28 0.0 3.0 0.00 0.10 0.05 53 1006.3
20260507234233 56 32 1.0 3.0 0.00 0.10 0.05 50 1006.4
20260507233225 56 28 1.0 3.0 0.00 0.10 0.05 48 1006.3
20260507232225 56 30 0.0 2.0 0.00 0.10 0.05 49 1006.2
20260507231225 57 45 1.0 2.0 0.00 0.10 0.05 50 1006.0
20260507230224 57 46 1.0 5.0 0.00 0.10 0.05 48 1006.0
20260507225707 57 24 0.0 3.0 0.00 0.10 0.05 49 1005.9
20260507224224 58 33 1.0 3.0 0.00 0.10 0.05 49 1005.9
20260507223225 58 27 1.0 5.0 0.00 0.10 0.05 49 1005.9
20260507222225 58 108 1.0 5.0 0.00 0.10 0.05 46 1005.9
20260507221225 58 40 1.0 5.0 0.00 0.10 0.05 45 1005.9
20260507220222 58 327 1.0 4.0 0.00 0.10 0.05 47 1005.9
20260507215222 58 5 2.0 5.0 0.00 0.10 0.05 46 1005.9
20260507214222 58 346 2.0 8.0 0.00 0.10 0.05 44 1005.7
20260507213223 59 343 2.0 5.0 0.00 0.11 0.05 45 1005.8
20260507212221 59 227 1.0 5.0 0.00 0.11 0.05 47 1005.6
20260507211223 58 261 1.0 4.0 0.00 0.11 0.05 49 1005.6
20260507211139 58 307 2.0 8.0 0.00 0.11 0.05 46 1005.6
20260507205701 58 342 2.0 5.0 0.00 0.11 0.05 44 1005.5
20260507204707 58 333 1.0 4.0 0.00 0.11 0.05 46 1005.7
20260507203224 59 55 1.0 4.0 0.00 0.12 0.05 45 1005.6
20260507202701 59 337 1.0 3.0 0.00 0.12 0.05 46 1005.6
20260507201222 60 329 2.0 5.0 0.00 0.13 0.05 46 1005.6
20260507200222 59 265 1.0 5.0 0.00 0.14 0.05 48 1005.6
20260507195221 59 278 1.0 4.0 0.00 0.15 0.05 46 1005.8
20260507194224 60 277 3.0 11.0 0.00 0.16 0.05 43 1005.9
20260507193221 59 30 2.0 8.0 0.00 0.16 0.05 46 1005.9
20260507192216 59 26 1.0 5.0 0.00 0.17 0.05 43 1006.1
20260507191214 59 26 2.0 4.0 0.00 0.17 0.05 44 1006.2
20260507190214 59 311 2.0 5.0 0.00 0.17 0.05 46 1006.2
20260507185214 59 338 2.0 8.0 0.00 0.17 0.05 44 1006.4
20260507184215 59 55 3.0 9.0 0.00 0.17 0.05 42 1006.4
20260507183216 60 63 2.0 8.0 0.00 0.18 0.05 46 1006.4
20260507182656 60 171 2.0 5.0 0.00 0.19 0.05 44 1006.5
20260507181209 60 335 2.0 6.0 0.00 0.19 0.05 46 1006.4
20260507180209 59 346 3.0 9.0 0.00 0.20 0.05 44 1006.5
20260507175209 60 355 1.0 9.0 0.00 0.20 0.05 46 1006.7
20260507174209 59 311 2.0 10.0 0.00 0.21 0.05 44 1006.9
20260507173645 59 230 2.0 11.0 0.00 0.22 0.05 44 1007.0
20260507172207 58 242 2.0 5.0 0.00 0.22 0.05 47 1007.2
20260507171207 58 32 2.0 6.0 0.00 0.23 0.05 44 1007.1
20260507170207 58 28 3.0 9.0 0.00 0.23 0.05 43 1007.2
20260507165208 58 36 2.0 9.0 0.00 0.23 0.05 45 1007.1
20260507164203 58 20 2.0 7.0 0.00 0.23 0.05 45 1007.4
20260507163203 57 92 2.0 8.0 0.00 0.23 0.05 47 1007.4
20260507163122 57 347 3.0 8.0 0.00 0.23 0.05 45 1007.5
20260507161201 57 5 3.0 10.0 0.00 0.23 0.05 46 1007.7
20260507160647 56 316 3.0 10.0 0.00 0.23 0.05 49 1007.7
20260507155203 56 18 3.0 11.0 0.00 0.23 0.05 49 1007.7
20260507154204 56 340 2.0 6.0 0.00 0.23 0.05 48 1008.0
20260507153202 55 338 2.0 5.0 0.00 0.23 0.05 47 1008.1
20260507152203 55 340 2.0 6.0 0.00 0.23 0.05 51 1008.1
20260507151157 55 324 1.0 4.0 0.00 0.23 0.05 54 1008.1
20260507150156 55 313 1.0 5.0 0.00 0.23 0.05 53 1008.2
20260507145638 54 49 2.0 6.0 0.00 0.23 0.05 51 1008.1
20260507144156 54 336 2.0 7.0 0.00 0.23 0.05 52 1008.2
20260507143633 54 344 2.0 5.0 0.00 0.23 0.05 53 1008.3
20260507142156 54 223 2.0 9.0 0.00 0.23 0.05 56 1008.3
20260507141154 53 329 2.0 6.0 0.00 0.23 0.05 60 1008.4
20260507140156 53 178 2.0 5.0 0.00 0.23 0.05 59 1008.3
20260507135158 52 260 2.0 8.0 0.00 0.23 0.05 63 1008.3
20260507134150 52 291 2.0 7.0 0.00 0.23 0.05 63 1008.3
20260507133148 51 276 1.0 3.0 0.00 0.23 0.05 62 1008.3
20260507132151 51 276 2.0 5.0 0.00 0.23 0.05 65 1008.4
20260507131633 51 5 1.0 6.0 0.00 0.23 0.05 67 1008.3
20260507130147 51 344 2.0 5.0 0.00 0.23 0.05 66 1008.1
20260507125148 50 266 2.0 5.0 0.00 0.23 0.05 71 1008.2
20260507125104 50 325 2.0 6.0 0.00 0.23 0.05 69 1008.2
20260507123147 50 318 2.0 5.0 0.00 0.23 0.05 70 1008.2
20260507122147 49 294 2.0 8.0 0.00 0.23 0.05 72 1008.2
20260507121144 49 335 3.0 9.0 0.00 0.23 0.05 73 1008.1
20260507120143 49 333 2.0 7.0 0.00 0.23 0.05 81 1008.0
20260507115142 48 342 3.0 9.0 0.00 0.23 0.05 84 1007.9
20260507114144 47 333 2.0 5.0 0.00 0.23 0.05 85 1008.0
20260507113143 47 14 2.0 6.0 0.00 0.23 0.05 89 1007.9
20260507112144 47 333 1.0 6.0 0.00 0.23 0.05 92 1007.9
20260507111144 47 271 0.0 1.0 0.00 0.23 0.05 93 1007.8
20260507110144 47 271 0.0 3.0 0.00 0.23 0.05 93 1007.6
20260507105146 47 271 1.0 3.0 0.00 0.23 0.05 93 1007.5
20260507104142 47 260 1.0 5.0 0.00 0.23 0.05 93 1007.3
20260507103144 47 27 1.0 5.0 0.00 0.23 0.05 94 1007.1
20260507102143 47 96 1.0 3.0 0.00 0.23 0.05 94 1007.0
20260507101144 47 43 1.0 6.0 0.00 0.23 0.05 94 1006.8
20260507100144 48 80 1.0 3.0 0.00 0.23 0.05 94 1006.7
20260507095143 48 76 0.0 2.0 0.00 0.23 0.05 95 1006.8
20260507094143 48 76 0.0 1.0 0.01 0.23 0.05 95 1006.8
20260507093144 48 76 0.0 3.0 0.01 0.23 0.05 95 1007.0
20260507092143 48 33 0.0 1.0 0.01 0.23 0.05 95 1006.7
20260507091143 48 33 0.0 2.0 0.02 0.23 0.05 95 1006.3
20260507090144 49 33 0.0 2.0 0.02 0.23 0.05 95 1006.5
20260507085143 49 32 0.0 1.0 0.03 0.23 0.05 94 1006.6
20260507084145 49 23 0.0 2.0 0.02 0.22 0.04 94 1006.8
20260507083138 49 23 0.0 1.0 0.02 0.22 0.04 94 1006.7
20260507082138 49 23 0.0 1.0 0.03 0.22 0.04 94 1006.9
20260507081620 49 23 0.0 3.0 0.02 0.21 0.03 94 1006.5
20260507080137 49 72 0.0 0.0 0.02 0.21 0.03 94 1006.8
20260507075138 49 72 0.0 0.0 0.01 0.20 0.02 94 1007.3
20260507074137 49 72 0.0 0.0 0.01 0.20 0.02 94 1007.1
20260507073136 49 72 0.0 1.0 0.02 0.20 0.02 93 1006.9
20260507072136 49 72 0.0 4.0 0.01 0.19 0.02 93 1006.9
20260507071137 49 0 0.0 2.0 0.01 0.19 0.01 93 1006.9
20260507070131 49 0 1.0 3.0 0.01 0.19 0.01 93 1006.8
20260507065131 49 11 1.0 3.0 0.01 0.19 0.01 93 1006.6
20260507065051 50 20 1.0 5.0 0.01 0.19 0.01 93 1006.6
20260507063130 50 34 1.0 2.0 0.00 0.18 0.00 93 1006.5
20260507062131 50 38 0.0 2.0 0.00 0.18 0.00 93 1006.4
20260507061621 50 29 0.0 2.0 0.00 0.18 0.00 93 1006.0
20260507060130 50 74 0.0 4.0 0.00 0.18 0.00 93 1006.0
20260507055132 51 73 1.0 4.0 0.00 0.18 0.00 93 1006.0
20260507054609 51 349 1.0 4.0 0.00 0.18 0.00 93 1006.4
20260507053125 51 9 1.0 4.0 0.00 0.18 0.00 94 1006.5
20260507052125 51 30 0.0 2.0 0.00 0.18 0.00 94 1006.6
20260507051124 51 32 0.0 0.0 0.00 0.18 0.00 94 1006.6